GFSSGP_con_mucape_195.txt.gz
CAPE
447 659 940 1111 1116 638 274 331 312 114 66 15 5 56 92 77 156 393 162 155 116 214 556 933 1419 1420 1583 1446 1522 1611 1577 1700 1745 1170 1507 1575 1722 1750 1592 1956 1873 1914 1653 1519 1534 1482 1624 1441 1447
1260 1250 1570 2152 530 158 337 42 295 122 62 60 32 53 104 98 34 136 147 201 174 230 466 912 1351 947 1115 989 1192 1189 1479 1519 1594 1624 1573 1710 1817 1415 1446 1678 1741 1747 1450 1376 1356 1277 1184 1263 1389
1722 1246 2152 780 74 86 252 255 62 142 85 48 133 119 131 17 81 66 177 277 299 297 519 940 1296 1463 1341 1231 1321 1452 1527 1640 1621 1569 1591 1402 1412 1499 1802 1745 1515 1443 1508 1488 1473 1369 1254 1251 1223
1427 2364 1964 955 54 138 87 264 126 190 188 214 197 142 152 79 61 122 142 147 190 230 330 835 1222 1423 1099 739 1676 590 908 883 1010 1144 1181 1145 1662 1475 1695 1766 1735 1590 1498 1475 1501 1465 1343 1157 1201
1944 1628 744 120 51 53 162 214 158 251 301 87 106 147 67 83 46 115 159 139 240 361 567 601 1399 1255 844 962 1584 847 1683 1941 1673 1269 1316 1591 1562 1744 1713 1525 1354 1321 1266 1266 1328 1432 1388 1418 1505
1294 722 397 60 49 82 106 204 110 210 155 413 103 142 145 33 90 146 169 129 48 348 1050 661 963 419 287 1262 1510 869 1421 1691 1822 1824 1797 1829 1517 1204 1082 960 821 881 989 995 1002 1110 1207 1482 1617
932 279 111 56 73 97 207 129 178 229 173 287 73 91 38 45 35 149 182 489 224 700 637 762 10 500 1156 1400 1683 1957 1921 1248 1001 1088 1107 1100 956 991 1014 1104 1171 1462 1675 1561 1393 1572 1703 1853 2012
269 287 165 95 144 18 71 285 379 237 215 265 521 544 63 45 24 64 158 170 377 762 713 805 278 851 952 1677 1556 1210 1012 1116 1377 1424 1524 1715 1627 1785 1899 1989 1931 1954 2033 2024 2128 2231 2155 2321 2576
263 334 80 65 180 41 67 181 220 548 353 328 308 291 251 6 33 9 209 60 123 620 590 886 699 481 1075 802 584 613 797 1012 1264 1454 1448 1612 1941 2064 2372 2134 1805 1920 1837 1904 1415 2223 2476 2540 2849
216 144 51 53 52 72 84 225 299 498 507 472 387 228 26 0 1 20 223 53 242 302 261 743 45 25 346 48 750 877 1143 1672 1726 2030 2227 2083 1606 1652 1795 1774 2050 2087 2070 2319 2008 1826 2280 2561 1819
125 49 76 123 106 136 124 112 194 187 525 544 481 229 53 20 4 19 13 47 168 246 330 192 130 6 0 94 541 1393 1563 1761 1640 2030 2103 1830 2171 2059 2152 1484 2472 1986 2218 2601 2276 1956 1640 1907 1193
57 2 54 44 38 42 175 143 206 338 429 446 506 225 72 4 17 0 28 132 162 216 292 162 178 132 61 141 510 656 1379 1143 1352 1575 2286 2482 2341 1396 1898 1393 1649 2106 2096 1645 2985 2581 2649 2239 2104
67 32 50 89 149 55 47 76 149 453 593 470 510 203 81 0 0 2 16 177 126 252 260 51 57 206 793 1326 1170 1865 1783 1702 1092 2234 1816 1635 1547 1879 1261 1781 1379 2399 2171 1467 2333 2892 1839 1658 1655
16 77 105 215 252 326 158 170 325 649 480 656 521 262 103 20 0 114 4 150 168 315 70 10 45 941 1291 1820 1458 1319 2386 1378 1024 1189 1686 2001 2053 2389 2207 1300 1113 1079 1411 1746 1844 2467 1851 1795 1165
197 85 150 220 437 528 470 411 481 534 515 594 506 379 181 157 61 177 108 180 167 315 9 0 165 1043 1493 1712 1599 1497 1261 1009 946 1201 1621 1765 2037 2020 3526 2231 1546 1541 1905 1357 1412 1755 1208 818 641
340 228 148 168 385 466 410 339 421 382 553 544 467 459 211 275 447 539 399 141 108 296 11 2 581 1089 1363 1375 1447 1196 1153 903 917 812 1480 1501 1894 2028 3791 2317 1623 2961 3202 2262 1997 2172 2162 2518 2373
297 291 534 286 273 960 431 493 566 490 574 713 530 531 369 439 442 503 505 304 174 425 93 306 950 1020 1226 1292 1118 1520 1891 1291 914 880 997 1650 1834 1893 2623 2064 2297 3080 2374 2286 2346 2328 2955 2660 2625
296 198 123 161 508 250 553 593 933 651 533 621 646 533 537 548 345 505 511 385 0 465 364 652 1016 1276 1495 1309 1424 1341 1406 974 848 808 1216 1495 1681 1795 2435 2701 2664 3577 3203 2868 2888 3262 2908 3239 2363
141 205 226 9 162 175 340 428 1208 986 671 523 687 612 581 580 570 458 507 390 121 297 457 572 1084 1681 1650 1390 1219 1129 1071 878 767 660 754 1232 1417 1749 1827 2151 2489 2095 2508 3211 3260 3157 3285 2717 2750
72 232 216 192 119 61 87 328 431 1205 887 616 434 611 613 623 454 559 778 517 301 272 583 355 934 1563 1777 1192 1456 1002 973 706 594 620 834 1139 1343 1509 1409 2782 2804 3215 2582 2969 3169 3243 2771 3111 3188
58 113 145 178 116 246 89 126 92 918 1085 545 465 416 517 583 583 727 878 648 330 351 506 452 1105 1480 1583 1786 1148 1483 1298 1223 569 437 817 1594 1089 1402 1909 2445 2963 3075 3538 2362 2985 3495 3406 2656 1341
41 44 49 34 118 252 210 364 137 560 1161 813 375 346 405 516 702 825 863 703 517 380 299 605 1256 1521 1259 1562 1894 2412 900 621 383 544 1055 745 1175 1566 1765 2210 2532 2879 2780 3012 3501 3324 3169 2392 1335
11 49 80 34 114 198 313 265 111 712 1064 1017 443 304 281 330 583 805 835 909 838 572 398 356 1708 1681 1509 1734 1767 1130 1193 795 709 686 1720 1611 2151 2088 1826 2065 2557 2652 2816 2931 3543 3105 2839 2314 1258
0 50 84 56 139 159 118 150 201 683 782 1102 745 375 208 162 402 630 788 840 833 776 676 295 1657 2273 1805 1164 1036 1344 1455 1595 1015 1076 1072 1191 1242 1614 2223 2435 2671 2871 3129 3547 3332 2849 2461 2010 1121
0 79 116 119 150 132 121 122 123 152 301 621 936 666 328 50 164 544 757 786 823 851 751 493 1233 1959 1325 882 838 1129 1402 1593 1680 1851 1734 1636 1437 1358 3466 2871 3535 3184 3524 3426 3095 2213 1842 1191 525
0 64 103 194 238 218 253 172 122 46 232 338 854 834 663 144 35 373 685 789 783 679 634 518 1367 2154 1707 1583 2026 2117 2139 1230 1352 2100 1607 1413 1451 1526 2674 2742 2796 2998 2655 2937 2264 1774 1198 707 84
0 57 59 129 103 292 59 348 31 110 39 31 84 949 775 375 0 204 532 826 885 803 747 806 1453 2016 1771 1741 2123 2614 2321 2315 1788 3150 3215 2001 3009 1916 2197 2794 2773 2623 2936 2207 1709 1209 778 100 0
0 8 15 57 185 134 116 219 6 101 88 274 179 818 849 587 3 75 350 659 828 862 935 992 1085 1486 1720 1696 1856 1917 2084 2374 2505 2301 2500 2711 2279 2330 2803 2725 2982 2465 2405 1580 1241 925 310 0 0
0 3 9 77 61 75 88 411 184 228 163 81 328 846 851 640 92 21 251 522 670 755 856 966 1051 1296 1796 2535 2484 2751 2146 2313 2313 2219 2362 2588 2622 2797 3003 3111 2952 2497 1821 1239 989 492 3 0 0
0 0 7 72 129 81 88 241 71 151 46 148 527 950 742 497 122 36 139 377 565 702 803 925 1216 1479 2342 2970 3388 2431 2006 2320 2298 2586 2435 2508 2661 2952 3112 3353 2681 2026 1593 1356 865 436 0 0 0

GFSSGP_con_mucape_198.txt.gz
CAPE
155 154 299 749 208 234 152 180 63 8 99 33 33 109 68 97 171 147 251 101 103 530 721 932 1897 1756 1230 1551 1748 1542 1792 1719 1257 1609 1630 1658 1628 1831 1815 1805 1767 1502 1386 1354 1288 1497 1334 1369 1263
282 728 901 915 320 145 164 63 129 80 11 23 55 102 41 25 62 103 88 292 165 478 805 885 1572 1393 1283 1163 1331 1496 1457 1658 1431 1686 1651 1649 1687 2037 1762 1733 1678 1316 1205 1207 1161 1030 1000 1080 1181
886 1383 377 60 69 162 47 82 113 27 26 62 88 108 40 60 62 127 121 241 469 676 866 1184 1435 1314 1310 1366 1670 1618 1807 1632 1541 1347 1440 1518 1662 1698 1717 1376 1389 1408 1377 1251 1215 1036 1018 955 973
1396 695 596 280 137 266 223 81 123 16 11 43 53 25 64 42 87 90 86 157 239 490 554 1461 1471 1283 837 1249 783 1181 1299 1344 1503 1543 1145 1672 1548 1634 1595 1759 1534 1438 1307 1290 1308 1276 1139 969 999
1187 59 16 45 209 107 160 302 121 187 240 101 200 161 53 38 67 57 116 163 107 400 523 1101 1608 985 1345 1545 714 1689 1769 1397 1350 1001 1509 1568 1662 1755 1642 1356 1210 1134 1027 1003 983 1071 1173 1149 1369
168 86 287 39 101 206 323 352 262 168 80 109 58 42 121 10 34 110 184 142 110 519 739 820 1117 564 1305 1317 631 1567 1792 1844 1596 1605 1708 1625 1457 1243 1117 974 762 670 713 772 809 977 1177 1350 1748
455 192 36 66 98 66 291 274 254 92 138 126 73 62 19 11 30 210 559 600 440 568 638 660 78 507 1331 1342 1696 1603 1226 1134 1241 1285 1268 1246 1120 1014 839 915 858 1202 1555 1589 1552 1665 2035 2300 2174
290 104 22 78 23 29 196 169 227 100 164 94 22 4 0 23 24 118 266 453 495 533 297 57 419 886 1292 1485 1489 1349 1008 814 802 891 1028 1130 1018 1150 1049 1726 2121 1855 1993 2093 2367 2441 2801 2957 3240
160 62 91 156 64 34 213 443 302 248 235 303 442 244 0 0 17 9 131 135 669 848 620 412 661 1166 2103 1413 811 1098 805 1081 1288 1336 851 1443 1950 1477 1314 1796 1946 2029 1901 2055 2059 2457 2725 2447 1462
76 133 39 60 70 50 58 24 60 229 272 222 372 254 7 5 1 0 0 0 406 444 602 314 21 472 1158 0 630 832 960 1376 2124 1848 2689 1734 800 444 1652 1606 2024 2379 2441 2437 866 1583 2344 507 785
19 0 1 36 20 68 76 24 51 173 188 347 348 160 1 25 0 93 9 0 447 242 789 519 5 261 153 579 1168 1824 1836 1562 2561 2439 1141 2472 1330 1653 1469 2204 2238 2513 3021 2315 592 1340 1679 589 1375
3 1 47 4 7 9 62 5 264 280 216 412 211 0 0 0 1 48 15 0 60 115 197 12 50 530 859 739 726 1826 1612 361 1330 1522 775 1555 3333 2720 2507 2263 1618 2519 2987 2677 1935 2806 2848 1653 1532
4 75 18 0 32 5 1 127 479 312 224 450 246 47 3 0 10 0 12 54 62 250 245 415 638 1804 1597 2160 2609 524 1895 1225 953 1141 3184 2719 2921 2291 2565 3053 2779 2468 2231 2287 3305 3176 2933 2890 2780
1 10 112 125 3 36 11 0 38 15 108 436 321 167 58 0 13 0 43 79 95 492 234 204 346 1601 2241 2452 2659 2439 1167 2641 1114 1443 2757 3446 3036 799 1117 2550 2778 2692 2743 2657 2370 2994 3612 2552 1530
6 110 3 164 78 45 204 175 481 97 233 242 370 261 29 0 4 47 41 229 195 494 37 136 650 1387 2334 2529 2445 2766 2549 1374 2486 2337 3224 2868 3382 2952 1386 3389 2987 2779 3120 2973 3206 3118 2949 2187 2029
16 116 114 157 117 250 469 531 611 141 290 299 315 275 136 0 0 239 13 244 512 450 305 49 142 1410 1992 2633 3039 2944 880 2972 1942 2403 2603 2979 3309 3599 2815 2979 2968 3633 3817 3053 3006 2829 3171 3125 1973
57 232 239 202 109 96 524 325 139 218 359 352 362 283 224 177 2 193 66 140 276 772 510 343 1470 1495 2079 2568 2469 3228 2929 933 2494 1539 2262 2777 2819 2914 1871 3060 3766 4752 3772 3247 3288 3185 3004 2714 2213
142 193 78 81 125 138 379 198 175 417 423 396 386 358 347 290 372 474 434 146 264 863 669 988 2079 2581 2682 2072 3378 2896 2079 2439 2149 2256 2185 2235 2619 2899 3499 2549 3980 4494 4085 3719 3954 4112 3659 3587 3048
8 14 0 157 239 329 190 831 733 617 414 501 496 408 446 355 410 371 508 428 123 732 643 1393 2432 2956 2471 2194 2185 2526 1751 2192 1468 1923 2031 2010 2147 2571 3449 2814 3741 3747 4046 4328 3974 3305 3315 3662 3460
36 0 19 34 44 200 20 671 1050 830 645 405 426 487 404 408 371 526 485 541 147 941 1102 1377 2170 2781 2814 2661 2853 2859 2906 1496 2302 2181 2130 2021 1926 2239 2489 4019 4006 4412 3999 3708 3448 3814 3277 3611 3372
4 6 6 35 23 177 87 27 1179 1107 833 566 366 391 397 542 578 703 512 558 245 810 1137 1023 2296 2800 2700 2932 3052 3247 3203 2739 1861 1816 1907 2189 1899 2092 2711 3432 4116 4289 4088 3613 3913 4066 3872 2434 2412
0 2 17 36 38 98 260 259 124 1208 1084 718 616 416 350 434 712 891 855 943 721 795 1147 1165 1830 2634 2431 2927 2696 3118 2548 1951 1617 2520 2959 2735 1777 2065 2879 2828 3662 4324 4115 3965 3909 3657 3560 3117 1685
0 0 20 11 17 2 89 197 238 173 1195 808 558 582 380 512 621 760 651 988 601 739 788 1228 1646 2459 2280 2576 3149 2639 2747 2498 2496 2405 3248 2400 3480 3043 2755 2792 3359 4096 3947 4468 4204 3560 3520 2127 1331
0 0 2 40 50 36 23 51 174 215 567 972 576 522 639 420 474 977 942 1000 731 823 779 1014 1702 2059 2218 2272 2456 2943 2768 2429 2959 2600 2957 2645 2688 3061 3765 3231 3578 3615 4243 4251 3876 3477 2758 1832 1369
0 0 28 36 139 11 12 31 307 393 125 429 793 419 397 554 469 1109 944 1191 1018 1092 871 780 1795 1851 1840 2021 1802 2024 2447 3253 3367 3146 2990 3040 3053 3337 4362 4256 4021 4277 4190 3867 3526 2866 2379 1506 857
0 0 33 73 76 28 302 136 323 30 6 5 404 458 278 227 284 620 1097 1224 1289 1236 1171 989 1400 1828 1921 1464 1563 2013 2126 2003 2298 3356 2632 3112 3071 3630 4444 3978 3783 3856 3616 3182 3075 2888 1839 964 477
0 0 0 14 63 100 287 228 116 49 79 134 370 687 394 218 135 545 702 1130 1257 1142 1343 1302 1271 1570 1595 1574 1702 1800 2230 2150 1684 2658 2962 2500 3442 2535 3572 3320 3924 3628 3271 2698 2455 2201 1403 789 93
0 0 0 2 29 87 141 159 128 253 267 178 376 1071 830 445 113 405 692 1049 1109 1159 1292 1282 1377 1447 1881 2027 2345 2508 2222 2272 2251 3516 4065 3404 4309 4185 3164 3776 3722 3171 2744 2404 2150 1768 814 181 24
0 0 0 0 41 110 175 152 18 272 165 334 225 1299 1131 664 162 269 665 1152 1172 1067 1068 1068 1250 1869 2145 2348 2543 2575 2428 2244 2496 2600 3221 3616 3832 4012 4011 4120 3368 2915 2222 2013 1826 1113 446 0 0
0 0 0 2 52 77 99 94 2 0 16 199 231 1444 1261 833 191 209 470 1120 1244 1189 1150 1182 1342 1973 2183 2586 2765 2500 2487 2384 2574 2892 3001 3257 3633 3997 4067 4105 3128 2480 2124 1827 1599 1134 322 0 0

GFSSGP_con_mucape_201.txt.gz
CAPE
153 94 260 291 507 186 44 94 55 71 91 58 78 117 62 47 68 0 50 68 360 496 844 1398 1831 1583 1356 1651 1708 1861 1506 1313 1642 1969 1652 1595 1923 1748 1880 1778 1601 1454 1480 1395 1651 1561 1516 1443 1249
57 176 51 462 105 117 65 61 65 49 25 59 42 38 22 9 0 20 37 199 243 434 706 805 1887 2114 1158 1456 1636 1901 1553 1398 1710 1451 1583 1527 1705 1699 1758 1795 1311 1241 1263 1299 1299 1134 1111 1186 1243
312 145 124 74 28 85 83 54 53 25 69 134 62 43 26 22 20 29 141 167 366 324 341 1084 1451 1206 1140 1666 1598 1825 1739 1474 1463 1650 1356 1373 1807 1738 1343 1301 1323 1397 1355 1346 1279 1106 1099 1024 1059
514 281 4 359 123 110 166 72 0 30 98 114 54 41 22 47 33 16 105 305 344 545 987 1238 1355 1263 797 1374 1469 1632 1498 1764 1805 1148 1300 1706 1601 1386 1757 1536 1466 1361 1307 1345 1388 1392 1308 1250 1457
20 13 7 86 154 159 210 108 74 14 39 61 39 50 4 20 11 22 22 125 211 460 869 1181 1327 1171 1600 609 1342 1458 1124 1032 854 936 1766 1541 1679 1668 1755 1344 1204 1139 1073 1104 1108 1076 1269 1278 1612
23 2 31 98 210 245 225 215 302 144 103 158 55 9 3 0 11 19 40 90 127 365 785 919 1045 1345 1671 735 1696 1853 1717 1217 1065 1306 1561 1561 1522 1375 1209 1150 1128 976 864 906 1001 1093 1196 1366 1738
109 38 86 137 321 168 316 212 325 173 78 23 19 23 0 4 18 87 115 104 230 377 377 558 199 1100 1189 774 1193 1446 1627 1598 1554 1487 1535 1438 1111 912 1032 1559 1471 1051 1247 1577 1631 1631 1884 2121 2282
579 238 29 45 72 152 250 275 290 118 229 41 0 0 0 4 57 183 136 264 187 226 226 0 43 948 1004 1483 1835 1486 1037 968 945 883 1176 1239 953 875 1442 1758 1981 1849 1685 2277 2309 2163 2383 2308 1757
148 90 49 88 50 51 153 172 269 337 250 124 40 5 0 6 6 114 141 161 208 8 0 6 169 656 938 993 1130 1538 896 901 1124 1472 1173 1139 959 1062 409 944 1980 1945 2000 2078 2011 1856 2276 1602 1279
158 60 36 72 92 259 409 359 252 354 354 461 399 142 0 0 19 101 217 138 282 170 16 47 482 803 875 560 400 436 671 795 1107 1269 1141 757 533 423 1346 1577 2840 2473 2405 2187 1171 932 2005 981 924
21 69 0 51 74 397 172 479 309 314 390 332 152 110 0 0 0 14 4 31 174 171 310 9 314 572 546 24 314 545 796 1006 1317 739 667 852 788 707 930 1466 2068 1308 2677 1593 1217 1436 1958 886 914
4 60 37 164 154 152 289 365 334 375 468 347 137 163 0 0 0 0 0 1 246 130 284 0 0 74 182 166 1000 761 334 556 1042 1025 1235 1676 1643 1538 1488 1705 1387 1437 2232 2081 1481 1607 2008 1520 1077
51 12 37 199 217 94 393 330 371 410 383 277 77 46 8 0 0 14 0 28 139 109 290 0 109 14 726 1125 577 718 664 808 476 1442 1992 1821 498 633 856 1423 2088 1140 1589 1998 1900 1475 1725 1830 1614
31 4 34 181 75 50 184 235 188 409 309 149 0 0 5 0 11 20 0 0 10 26 8 0 180 984 1033 1254 833 421 712 622 625 1098 1337 1397 222 745 1137 1538 2109 1981 2204 2096 1343 1502 1640 1325 1119
0 25 83 122 82 224 273 361 255 419 303 176 27 0 0 0 0 1 0 4 11 1 0 0 147 1070 1046 1370 1243 643 1450 758 869 1462 1449 1840 1299 1282 1717 1855 1760 2300 2786 2455 2315 2304 2097 1778 1738
7 42 120 138 236 245 255 275 321 182 299 194 88 29 2 0 0 0 6 17 5 0 13 0 275 1023 1129 798 1182 1727 704 1368 1481 1276 1524 1307 1673 919 1451 2032 2039 2791 2499 2303 2219 2141 2083 2058 1816
1 32 38 289 193 398 378 250 38 170 228 259 197 104 16 0 0 0 6 3 3 0 5 0 255 711 1285 1318 1023 1179 910 354 1564 1207 1604 1538 1384 1332 1718 1920 2498 2736 2724 2340 2627 2456 2474 2403 1810
115 109 79 92 120 18 125 347 129 271 275 184 293 185 56 0 0 84 3 0 61 0 4 0 771 869 1122 892 1416 1303 347 541 1232 1100 896 1081 1551 1563 1577 2379 2692 2695 2553 1835 2604 1705 2001 2388 1781
18 161 137 1 32 15 4 271 194 278 266 228 278 222 56 3 0 19 15 2 108 17 1 7 1447 1293 779 782 1095 1228 973 461 969 885 798 1302 1163 1001 1680 2115 2778 2708 2471 1765 2426 2085 2064 2218 1788
0 44 27 2 21 21 47 111 240 248 266 243 266 230 89 72 113 39 111 125 69 57 37 410 1083 1256 846 720 938 1234 1598 1085 991 690 538 1000 1031 950 1339 2057 2286 2486 2417 2313 2425 2689 2276 1597 1026
0 3 7 5 2 0 26 9 349 434 366 270 270 331 197 129 243 241 223 103 33 154 78 595 1001 1078 1452 1232 1270 1429 1446 1007 441 452 743 772 799 967 1560 1843 2307 2467 2356 2601 2630 1950 1913 1653 203
0 0 0 1 0 9 53 43 764 641 554 452 330 357 311 250 217 251 296 218 229 218 162 593 1407 1260 1543 1505 1326 964 1112 581 323 292 735 1069 955 1069 1266 1714 2082 2588 2427 2657 2365 2106 1451 592 7
0 0 0 3 3 6 32 107 714 816 707 658 599 313 406 365 294 234 224 308 222 308 223 319 1155 1584 1135 1199 1388 1196 907 1023 1221 1282 1154 1189 930 1343 1442 1809 2001 2276 2807 2631 2210 1857 1511 492 8
0 0 0 0 0 2 7 9 94 949 876 822 708 593 308 437 481 450 259 362 227 449 304 259 947 1446 1019 994 1397 1593 918 967 1025 1199 1127 925 1112 1586 1967 2038 2139 2137 2684 2559 1974 1421 650 94 0
0 0 0 0 1 0 29 39 285 501 1053 840 714 653 561 273 488 497 446 521 283 421 467 404 519 1251 1287 1010 1149 1285 1348 1323 753 1263 1190 787 1258 1992 2190 2290 2226 2860 2457 2178 1766 1266 743 206 0
0 0 0 0 0 0 131 148 428 439 669 738 685 601 584 358 221 596 522 562 353 283 457 663 533 680 959 1475 863 1005 976 1033 1625 1772 1386 1458 1765 2561 2622 2389 2562 2314 2085 2013 1725 1471 959 86 0
0 0 0 0 0 2 266 109 145 82 83 85 26 213 489 404 289 459 558 575 478 294 505 613 688 753 841 743 1079 782 790 971 1093 1084 1277 1485 1467 1746 2585 2319 2647 2234 2024 1738 1514 1132 674 163 0
0 0 0 0 0 0 186 115 35 94 15 14 38 178 308 455 344 625 623 648 523 394 587 410 939 864 969 571 598 826 1071 995 1010 838 1160 1593 1209 1538 2018 2371 2520 2409 2037 1599 1299 967 749 340 0
0 0 0 0 0 0 25 34 98 64 114 86 25 24 298 385 295 655 705 864 638 643 770 632 850 945 979 902 684 477 749 1287 1007 1234 1613 2542 1920 2230 2394 2265 2523 2182 1715 1366 1179 874 735 195 0
0 0 0 0 0 0 0 89 52 9 43 22 55 207 269 411 208 280 744 887 869 752 724 848 756 842 883 780 803 1241 1349 1265 1311 1019 1175 1708 2386 2218 2236 2568 2536 2129 1578 1154 1097 892 752 697 0

GFSSGP_con_mucape_207.txt.gz
CAPE
56 53 85 336 239 104 127 109 121 82 19 26 1 0 7 55 0 0 28 328 744 1010 1078 1287 1884 1597 1376 1606 1708 1762 1540 1424 1855 1889 1802 1859 1972 1865 1771 1814 1928 1567 1887 1906 1789 1610 1511 1469 1500
47 69 12 41 110 45 89 52 49 111 43 6 7 0 17 13 117 277 333 765 807 1104 1252 1309 2137 1883 1679 1835 1461 1665 1733 1590 1778 1855 1890 1772 2138 1828 1263 1400 1450 1536 1758 1606 1568 1518 1472 1417 1123
161 294 54 84 61 63 36 54 74 42 24 22 5 17 3 129 184 193 381 565 794 948 1075 1246 1393 1599 1419 1516 1564 1648 1683 1690 1391 1348 1914 1935 1274 1193 1115 1322 1490 1615 1622 1520 1414 1577 1351 1158 700
226 86 92 73 46 142 81 67 81 59 94 55 11 2 32 25 69 195 262 454 574 732 963 1311 1004 1393 1608 1881 1589 1516 1360 1526 1275 1687 1817 1642 1647 1575 1642 1723 1695 1654 1594 1629 1455 1481 1297 543 703
68 109 5 9 0 95 132 81 126 120 106 50 11 4 6 12 90 152 335 215 449 916 1084 1194 1200 1526 1585 1770 1575 1732 1769 1332 1357 1786 1600 1669 1703 2002 1670 1478 1392 1385 1343 1315 1366 1252 1296 1345 594
114 109 0 0 27 122 79 101 128 129 86 38 9 13 26 149 139 328 301 234 728 856 1079 795 1175 1041 1347 1106 778 899 1076 927 1457 1749 1564 1752 1713 1575 1458 1375 1286 1251 1179 1102 1116 1175 1369 1387 984
70 86 4 0 44 60 68 66 116 109 84 26 3 25 25 143 250 329 272 492 699 851 353 979 1254 358 1264 1741 1482 1640 1032 1270 1588 1761 1680 1806 1548 1396 1470 1557 1773 1558 1715 1848 1915 2029 2098 1652 1269
151 63 70 30 48 6 39 153 146 169 159 62 5 17 25 77 233 239 176 363 642 629 177 847 1152 618 926 1547 1817 1878 1749 1677 1523 1256 1352 1420 1572 1364 1715 1626 1480 2072 2173 2184 1817 1801 2016 2141 1593
245 81 105 83 75 112 85 167 171 124 95 28 3 3 12 52 133 150 131 266 374 410 34 336 933 532 524 914 1239 1371 1230 1155 1205 1272 1384 647 983 1088 1077 1299 2118 2557 2550 2293 1672 1955 1943 2121 1921
374 80 33 123 106 34 114 162 156 176 83 90 21 8 13 90 100 108 98 105 133 92 3 0 769 686 949 1173 1224 913 669 820 1024 1053 975 811 899 910 1341 1553 2415 2796 2918 2371 2073 762 1728 1902 1289
191 129 15 115 135 112 231 234 324 254 90 104 32 72 68 131 75 103 92 60 58 2 0 0 330 446 687 492 501 552 804 898 967 1099 748 657 847 1258 1317 1603 1587 1496 1533 1692 1817 1004 1425 1152 858
48 55 53 90 188 229 407 403 294 269 176 199 121 136 63 119 123 125 141 98 33 0 70 167 239 482 667 130 209 410 669 889 1031 966 850 888 1021 1118 1385 1646 1609 1511 1593 1768 1712 1590 1316 622 704
8 25 54 68 285 313 342 361 358 337 312 257 252 157 76 120 128 124 137 121 15 0 1 253 310 446 647 289 295 305 457 735 1202 1353 1125 847 1031 1315 1675 1767 1768 2177 2085 1696 1595 1189 1209 1512 1414
20 15 108 170 432 466 366 405 414 376 330 314 189 65 103 131 116 116 94 147 38 11 7 39 242 459 476 230 422 477 490 583 1113 1106 421 707 1155 1344 1343 1548 1791 2013 1940 1835 1807 1724 1580 1239 1074
2 68 105 215 451 378 377 376 383 289 333 253 191 74 92 138 135 69 46 99 100 57 119 273 64 351 297 552 545 548 591 519 727 1184 1167 1092 1187 1484 1676 1804 1947 1625 1628 1826 1895 1643 1204 1046 820
0 63 69 292 284 316 171 87 389 357 374 243 86 69 61 75 159 70 25 6 75 85 297 27 94 341 533 389 395 601 942 515 906 1218 1472 1309 1199 1352 1739 2007 2205 1892 1906 1501 1536 1649 1349 1011 534
3 2 35 158 166 287 126 100 425 432 423 270 58 44 55 62 55 89 57 25 43 219 296 308 662 547 661 748 654 1008 932 835 716 1101 1145 1043 1053 1449 2173 2180 2313 1796 1700 1519 1379 1332 1288 761 250
0 3 0 22 1 41 97 114 434 479 464 365 190 39 0 0 0 32 65 15 24 55 89 407 494 396 385 515 780 914 520 796 820 907 1255 1103 976 1494 2113 2068 2222 1924 1775 1787 1176 585 97 164 341
0 6 2 0 22 5 0 1 404 478 477 407 363 209 53 2 0 11 54 70 17 22 150 104 357 470 421 566 727 854 617 645 952 863 1148 849 652 1105 1718 1772 1738 2015 1889 1559 1351 1073 0 0 80
0 9 5 29 6 2 0 0 16 352 457 435 383 262 209 66 0 0 8 29 37 37 141 42 358 370 398 610 638 682 648 576 980 856 616 895 706 967 1566 1642 1755 1856 1918 1596 748 695 195 0 0
0 1 6 0 0 1 3 0 0 57 298 331 392 294 224 126 0 6 0 26 0 7 15 77 321 400 565 443 605 928 967 790 867 702 502 825 718 759 1207 1624 1789 1945 1908 1436 840 252 0 0 0
0 0 0 0 0 0 0 0 2 0 101 369 327 348 290 220 81 9 4 11 16 26 21 112 389 392 556 348 533 874 810 713 774 573 407 452 662 701 908 1499 1740 2051 1982 1851 1264 833 0 0 0
0 0 0 0 0 0 0 0 0 0 4 158 346 343 319 273 163 1 6 29 42 35 41 270 420 395 508 203 376 1022 949 570 465 415 356 208 601 733 881 1419 1670 2135 2015 1931 1437 625 0 0 0
0 0 0 0 0 0 8 0 0 3 12 40 235 334 325 303 256 150 5 0 20 64 44 426 441 459 546 249 377 505 817 736 570 777 814 241 339 704 873 1383 1624 2104 2069 2010 1155 697 95 0 0
0 0 0 0 0 0 0 0 0 0 0 0 189 243 304 322 296 264 148 17 25 68 169 415 537 503 542 426 638 816 690 630 649 668 659 479 483 639 985 1278 1643 2107 2104 1430 1281 690 317 0 0
0 0 0 0 0 0 0 0 0 0 69 166 92 208 271 306 283 305 259 156 49 85 269 393 499 621 519 587 721 919 1000 843 584 584 767 714 554 662 1611 1425 1747 2056 2111 1608 1538 760 474 140 0
0 0 0 0 0 1 0 0 0 191 709 446 384 262 257 330 353 248 284 259 104 102 209 286 565 571 566 578 629 736 862 1034 1066 630 628 773 1190 1340 1851 1603 1818 2169 1941 1685 1635 783 566 409 3
0 0 0 0 0 0 0 0 1 58 558 652 561 467 379 438 364 307 273 292 211 130 174 259 474 602 616 570 519 571 766 759 1068 959 959 859 1061 1142 1475 1829 1882 2160 1883 1880 1585 1117 663 516 100
0 0 0 0 0 0 0 0 0 0 52 832 705 682 647 521 457 334 283 326 296 182 212 235 209 496 603 630 540 456 414 500 821 1037 771 757 692 816 790 902 1618 2012 1926 1939 1571 1209 683 589 366
0 0 0 0 0 0 0 0 0 0 0 593 740 755 774 632 437 322 312 328 318 305 296 265 277 301 451 565 536 490 422 298 433 931 892 657 533 584 795 1268 1727 2043 2011 1925 1590 1490 656 703 541

GFSSGP_con_mucape_210.txt.gz
CAPE
2 15 29 145 128 109 106 164 69 34 0 0 0 0 0 7 0 0 12 255 710 897 1064 1248 1610 1612 1664 1803 1644 1660 1547 1793 1826 1926 2002 2039 1914 1931 1936 1724 1596 1651 1769 1691 1538 1563 1369 1337 1315
35 30 41 9 66 25 73 34 38 33 3 0 0 0 7 1 111 99 230 635 857 910 968 1161 1881 1755 1428 1479 1694 1417 1611 1810 1993 1919 2099 1973 1744 1308 1492 1533 1547 1815 1702 1611 1548 1444 1368 1251 1278
43 172 21 42 28 23 34 34 32 1 5 20 6 9 13 124 91 80 262 687 923 1015 1053 1323 1629 1325 1743 1509 1688 1720 1667 1533 1393 1871 1781 1391 1371 1106 1328 1442 1565 1678 1516 1360 1409 1415 1271 1045 638
300 77 98 48 59 119 91 43 28 41 51 28 0 26 34 81 90 199 513 686 655 783 1071 1270 1331 1207 1309 1580 1641 1776 1816 1324 1552 1808 1655 1576 1501 1620 1657 1624 1688 1715 1680 1678 1628 1622 1347 618 728
31 35 5 15 29 65 140 78 58 89 66 56 27 24 44 86 136 275 447 486 614 870 945 739 1459 1539 1792 1498 1529 1423 1351 1342 1613 1714 1612 1617 1900 1877 1663 1571 1517 1501 1475 1391 1441 1398 1429 1446 665
67 49 6 2 29 46 86 78 126 108 95 59 32 32 40 111 123 239 261 273 585 782 982 863 1391 1534 1595 1434 1486 1588 1375 1262 1897 1702 1613 1809 1860 1760 1635 1514 1417 1374 1299 1286 1237 1229 1400 1535 1076
42 24 0 7 17 42 84 70 135 90 71 66 26 40 46 107 139 254 168 493 685 926 854 768 726 1111 1181 811 963 952 953 1211 1625 1366 1525 1577 1629 1631 1717 1795 2030 1875 1829 1767 1822 2028 2167 2303 1183
62 7 0 0 49 25 90 109 123 161 112 47 41 39 66 156 252 261 243 475 714 630 302 1097 730 348 1432 1615 1783 1828 1520 1570 1477 1293 1306 1466 1986 1782 1644 1156 1338 2241 1651 1850 1921 1703 1964 2339 1452
215 56 65 57 62 80 77 154 184 151 73 38 18 43 41 161 238 249 254 381 511 306 64 828 884 328 1074 1159 1420 1497 1373 1327 1462 1582 1611 730 1011 1005 1387 1622 2288 2381 2250 2115 2012 2033 1896 2053 1884
296 117 31 124 87 45 54 227 200 160 92 47 12 34 52 148 207 117 92 152 233 251 2 393 617 313 580 1209 1336 1012 639 889 996 1076 967 952 800 973 1611 1683 2376 2469 2701 2315 2336 1048 1843 2058 1453
238 122 17 80 93 77 90 284 222 191 112 34 34 6 42 134 143 74 54 55 45 38 2 0 435 433 659 679 721 500 693 841 995 1004 659 755 978 1023 1264 1325 1403 1501 1677 1487 1600 1017 1627 1492 1020
59 63 22 75 142 127 170 230 270 254 152 53 72 66 28 89 121 62 40 26 0 0 0 0 89 279 425 368 327 438 650 837 869 810 867 794 897 1209 1449 1413 1560 1556 1420 1590 1626 1419 1217 947 590
122 36 26 56 95 158 401 323 323 285 243 214 140 92 47 53 89 85 74 28 0 0 9 32 66 312 412 266 209 275 488 806 1091 1227 943 834 1054 1333 1462 1563 1800 1826 1671 1499 1353 1079 1126 1401 1219
13 58 86 98 261 314 346 349 347 352 317 229 197 158 71 79 95 108 102 67 18 0 29 71 69 196 349 385 347 395 450 844 1099 833 686 1054 1164 1279 1489 1605 1606 1533 1652 1739 1795 1575 1301 1091 963
5 165 362 330 426 457 448 344 388 282 329 282 206 131 69 91 108 113 139 94 34 0 0 74 187 235 402 354 365 498 504 542 770 1083 868 1091 1362 1522 1739 1669 1783 1671 1455 1417 1472 1301 1005 991 676
8 103 222 514 564 440 438 275 380 313 282 282 185 114 91 103 118 104 143 89 43 15 0 7 52 72 301 485 406 623 800 594 821 1162 1287 1068 1244 1645 1698 1915 1822 1422 1324 1313 1443 1334 914 292 386
3 46 81 422 451 403 394 120 303 308 369 265 121 94 92 111 120 105 73 32 51 48 68 180 51 28 319 503 387 634 1008 663 713 1037 1023 940 1112 1965 1939 2051 1660 1497 1322 914 982 631 441 19 43
2 1 4 158 210 309 276 112 326 352 408 345 142 122 92 69 112 102 32 6 22 45 100 199 117 140 558 437 532 804 810 723 699 827 1087 1060 976 1866 1802 1953 1801 1622 1425 1174 776 168 0 159 304
0 0 0 0 23 151 248 178 266 308 394 364 287 101 76 72 43 87 47 0 12 44 125 205 225 366 501 560 669 790 564 687 887 753 1132 866 592 1295 1490 1408 1664 1668 1365 835 928 487 0 9 290
0 0 0 0 0 23 0 0 189 283 359 381 324 173 75 6 57 44 4 0 0 34 129 196 285 308 308 350 574 697 740 419 508 844 966 637 596 986 1516 1415 1603 1644 1569 841 260 300 0 0 0
0 0 0 0 0 0 0 11 4 173 272 327 383 246 141 51 0 0 0 0 0 0 14 11 169 136 317 221 503 632 714 696 794 859 700 692 655 676 1248 1423 1568 1748 1593 1334 660 229 0 0 0
0 0 0 1 0 0 0 0 6 0 168 175 261 324 267 116 28 4 0 0 0 27 21 19 92 70 250 191 457 682 678 611 595 788 504 405 600 527 840 1329 1567 1737 1664 1588 1074 230 0 0 0
0 0 0 1 0 0 0 0 0 0 12 201 169 217 303 230 97 37 0 0 0 6 12 42 58 81 210 253 392 541 585 528 553 694 481 270 365 572 610 1189 1511 1782 1717 1688 1039 199 0 0 0
0 0 0 0 0 0 0 0 0 1 0 0 87 168 146 293 186 112 41 0 0 0 30 41 25 151 236 242 241 442 594 619 506 487 385 290 143 342 559 1022 1345 1730 1783 1820 1017 536 85 0 0
0 0 0 0 0 3 0 0 0 22 1 0 0 200 132 148 245 193 113 0 0 7 52 47 92 211 227 271 178 211 611 739 650 442 464 610 300 386 604 910 1242 1766 1807 1733 1293 712 384 27 0
0 0 0 0 0 0 0 0 7 0 0 9 5 63 230 173 215 266 193 3 0 0 65 80 150 206 312 313 332 128 287 519 648 669 663 643 459 461 591 1345 1245 1738 1898 1821 1498 1037 556 342 0
0 0 0 0 0 0 0 0 0 0 6 468 546 338 232 252 209 291 294 121 3 0 50 105 150 181 265 394 421 263 345 494 589 624 552 567 806 885 1535 1500 1378 1730 1964 1890 1675 1328 649 484 270
0 0 0 0 0 0 0 0 0 2 39 490 461 302 221 281 212 259 338 301 154 77 30 38 104 174 247 383 445 417 475 639 754 773 766 568 567 893 1321 1513 1589 1763 1960 1890 1775 1474 1040 595 505
0 0 0 0 0 0 0 0 0 0 16 183 431 464 400 295 235 294 314 310 286 202 171 74 109 201 283 365 427 453 474 533 652 740 809 832 732 755 969 1138 1651 1787 1957 1858 1826 1592 1344 703 610
0 0 0 0 0 0 0 0 0 0 0 59 201 542 551 519 360 279 272 299 239 262 279 200 110 306 332 347 384 423 458 420 449 588 643 823 882 707 639 666 889 1267 1719 1869 1877 1796 1437 1336 660